Back to catalog

SL-14 DEB

AlivePO
NORAD 45326·DEBRIS·🇷🇺 Russia

Launched Aug 15, 1991 from Plesetsk Cosmodrome

Loading…

Next Passes (next 24 hours)

TLE

FreshSource: Space-Track

Epoch: Sep 13, 2026, 21:21 UTC

1 45326U 91056BQ  26256.89013909  .00000505  00000-0  11277-2 0  9991
2 45326  82.5870  65.8216 0036426 161.7360 198.5085 13.25232709317949

Track SL-14 DEB in real time with AllMySat

Download on the App Store